Wind_Speed
24 24 23 21 19 18 17 15 15 15 15 17 19 20 21 22 22 21 22 22 21 21 22 21 21 20 19 17 16 15 15 16 15 15 15 16 18 20 22 23 24 25 27
25 25 24 23 21 20 17 17 15 17 19 21 24 25 26 27 26 26 26 26 25 24 24 25 23 23 22 19 18 17 17 17 17 17 17 18 19 20 21 24 26 28 29
28 26 24 25 23 21 22 22 20 21 23 25 26 29 30 31 31 31 30 30 28 27 27 28 27 26 23 21 21 20 20 21 20 21 21 22 22 24 25 27 29 31 33
29 29 29 27 26 26 25 24 23 25 26 28 30 32 33 34 34 34 33 31 30 29 30 30 30 27 25 24 24 24 24 24 25 25 25 26 27 28 29 32 34 36 38
30 30 30 30 29 29 28 28 28 30 30 32 34 35 36 36 36 36 34 32 31 31 31 32 30 28 27 27 27 28 28 28 28 29 30 31 32 33 34 36 38 41 43
32 33 33 33 33 32 32 32 34 35 36 37 37 36 37 37 36 36 36 35 34 33 32 32 31 31 30 30 31 31 32 32 33 34 35 36 37 38 40 41 43 45 48
35 35 35 35 35 35 36 37 38 39 40 40 40 39 39 38 38 37 36 35 33 31 32 33 33 33 33 33 34 34 35 36 37 38 39 40 42 43 45 46 47 49 52
37 37 37 37 38 39 40 41 42 42 43 43 42 41 39 38 37 37 34 33 33 34 34 34 35 34 34 36 37 38 39 40 41 42 44 45 46 47 49 50 52 53 55
38 38 38 39 41 43 44 44 45 46 45 45 43 41 39 38 36 35 35 35 35 36 36 38 37 37 38 40 41 42 43 44 45 46 48 49 50 51 52 54 55 56 58
39 39 40 41 42 43 45 46 47 47 46 45 44 41 40 38 38 37 37 37 37 38 39 39 40 41 42 44 45 46 47 48 49 50 51 53 53 53 55 56 57 58 59
40 40 41 41 42 43 45 46 47 47 46 45 43 42 41 40 39 39 40 40 40 41 42 43 44 46 47 48 48 49 50 51 52 54 54 55 55 56 56 58 59 60 61
40 41 42 43 43 44 45 45 45 45 44 43 43 42 42 43 43 43 43 43 44 45 46 47 49 50 51 52 52 53 54 55 56 55 55 55 55 56 57 58 59 61 62
39 42 43 45 45 46 45 43 42 42 42 43 43 44 45 46 46 47 47 48 49 50 51 52 54 55 56 57 57 57 57 57 56 55 55 55 55 56 57 58 60 61 61
35 39 41 43 45 45 45 44 43 43 43 44 45 46 47 48 49 50 51 52 53 54 55 56 57 58 59 59 59 59 57 56 55 54 54 55 55 56 58 59 59 59 58
37 37 39 41 44 44 43 43 42 43 44 46 47 48 50 51 52 53 54 55 56 57 58 58 59 59 59 59 58 57 56 55 54 54 54 55 55 56 57 57 56 55 54
35 37 37 37 39 41 41 41 41 42 43 45 46 47 49 50 52 53 55 56 56 57 58 59 58 57 56 55 54 54 53 52 52 52 53 53 54 54 55 54 52 50 48
32 34 35 37 37 37 37 38 40 42 43 44 45 45 46 48 49 50 52 53 54 54 53 53 52 52 52 51 51 51 50 51 51 51 51 51 51 50 50 48 47 46 44
29 29 29 30 32 34 37 39 41 41 42 43 45 46 46 47 47 47 48 48 49 48 48 47 47 48 48 48 48 48 48 48 48 48 48 48 47 46 45 43 42 40 38
27 27 28 29 30 32 34 36 38 40 41 42 44 45 46 46 47 47 46 46 46 46 46 46 47 47 47 47 47 47 46 46 46 46 45 43 43 42 40 38 36 34 30
25 25 27 27 28 29 31 34 36 39 40 41 42 43 43 43 43 43 43 44 44 45 45 45 45 45 45 46 46 45 45 44 44 43 41 39 38 36 34 30 28 25 22
22 23 24 26 28 29 30 32 33 35 36 38 39 39 40 40 40 41 42 42 43 43 43 43 44 44 44 44 44 43 43 42 41 39 36 34 32 29 26 22 19 17 16
20 21 23 25 26 28 29 30 32 33 34 35 36 37 37 38 39 39 40 40 41 41 41 41 42 42 42 41 41 40 39 37 35 33 30 27 24 21 18 14 12 11 12
19 21 22 23 24 25 27 28 29 30 31 32 34 35 36 36 37 37 38 38 37 37 37 37 37 37 37 36 35 34 32 29 27 24 21 18 15 12 9 7 7 8 9
18 20 21 21 22 24 25 26 27 28 29 31 32 33 33 33 34 33 33 33 33 33 32 32 31 31 30 29 27 25 22 20 17 14 12 10 8 5 3 3 4 6 8
17 18 19 20 21 22 23 24 25 27 28 29 29 29 29 30 29 29 28 28 27 26 25 24 24 23 22 20 17 14 12 10 8 6 6 5 4 3 3 3 5 7 9
16 17 18 18 19 19 20 22 23 24 25 25 25 25 24 23 22 22 22 20 19 18 17 16 16 14 12 9 7 5 3 4 6 7 8 8 8 7 7 7 7 8 9
Wind_Direction
249 251 251 249 249 246 245 244 253 265 276 285 289 291 292 295 296 296 295 296 297 301 305 307 309 312 313 314 314 316 318 317 313 309 304 297 293 289 287 289 287 285 284
251 255 258 261 262 262 256 255 262 268 276 282 287 290 290 293 295 294 292 291 291 294 298 301 301 303 305 304 305 305 308 309 309 308 307 304 300 296 293 290 288 286 284
252 259 262 263 269 271 277 271 267 269 276 279 283 287 289 289 291 290 288 288 288 290 291 294 294 298 299 301 300 299 299 300 300 301 302 301 300 298 295 291 288 286 284
250 257 262 265 271 273 278 279 277 280 282 283 285 285 287 288 288 288 287 286 286 287 288 289 291 294 298 299 296 295 294 296 296 297 298 298 298 297 295 292 290 287 285
251 257 265 269 273 278 281 282 282 283 285 287 287 285 286 286 285 285 286 286 285 285 287 290 290 293 298 298 295 293 293 294 294 296 296 295 295 294 292 290 288 287 285
252 257 263 269 273 278 280 282 283 284 287 289 287 286 287 286 285 284 284 283 283 284 286 287 289 293 295 295 294 293 292 292 293 294 294 294 294 293 291 290 288 287 286
251 257 263 267 271 275 277 279 281 283 286 287 288 288 287 285 284 283 281 282 282 282 284 285 287 291 293 293 293 293 292 292 292 292 292 293 292 292 291 289 288 287 287
250 255 259 263 267 270 274 276 280 281 285 287 287 286 284 283 283 282 280 281 282 283 284 285 288 290 292 292 292 293 293 293 292 292 293 292 292 291 290 289 289 288 288
248 251 256 260 263 267 271 274 277 280 283 285 285 284 282 281 281 280 281 281 282 283 286 288 288 290 292 292 293 293 292 292 292 293 293 293 292 292 291 291 291 290 290
247 250 254 258 262 265 269 272 275 278 280 281 281 280 279 279 278 279 279 281 282 284 287 288 288 290 291 292 292 291 292 292 293 293 293 293 292 292 292 293 293 293 293
246 250 254 258 261 264 267 270 272 275 277 277 277 277 277 278 278 279 281 282 283 285 286 287 289 290 290 290 290 290 290 290 291 293 293 293 294 294 294 294 294 295 295
244 249 253 256 259 262 265 268 270 272 273 274 275 276 276 277 279 280 281 282 284 286 287 288 289 289 290 289 289 290 290 290 291 293 294 294 294 295 295 295 296 296 297
248 249 253 256 257 260 262 263 266 268 270 271 273 274 275 276 277 279 280 282 283 285 286 287 287 288 288 288 289 290 290 291 292 293 294 295 295 296 296 296 297 298 298
255 254 255 256 257 258 259 260 263 266 268 270 271 272 273 274 275 277 279 280 282 283 284 285 286 287 287 287 288 289 290 291 292 293 294 295 295 296 297 298 298 299 299
261 261 258 259 259 259 259 261 263 265 266 268 269 270 272 273 273 275 277 279 280 281 281 282 282 283 284 285 286 288 289 290 292 292 293 294 296 297 297 298 299 300 301
269 268 266 266 265 263 262 263 266 268 268 268 268 268 269 271 272 273 275 276 277 278 279 280 281 282 283 285 287 288 289 290 291 292 293 294 295 296 297 298 300 301 301
275 274 270 271 269 269 268 268 270 270 268 266 265 267 268 269 271 273 274 275 277 278 279 281 283 284 285 286 287 287 288 289 290 291 292 294 295 296 297 299 300 301 303
282 280 278 277 277 275 274 273 271 268 268 269 271 273 273 275 276 278 279 279 281 283 283 284 285 285 285 285 285 286 287 287 289 290 291 293 295 297 297 299 300 303 306
285 285 284 282 278 275 275 274 274 274 274 276 278 279 280 281 283 284 286 286 285 285 285 285 284 284 284 284 284 285 286 287 288 289 291 292 294 295 296 297 300 303 306
290 288 285 281 280 279 278 278 279 279 280 282 284 285 286 286 286 286 286 285 284 284 283 283 283 283 284 284 285 285 285 286 287 288 289 290 291 293 294 296 300 303 307
290 286 285 283 284 285 285 285 286 287 288 290 290 290 289 288 287 286 285 285 284 284 283 283 283 283 284 284 284 284 284 285 285 286 286 287 288 289 292 296 300 305 314
293 291 291 291 290 290 291 292 293 293 293 293 293 292 292 291 290 288 287 286 285 285 285 284 284 284 283 283 283 283 283 283 282 282 282 282 282 284 289 295 302 313 323
298 298 298 298 297 297 298 298 298 298 298 297 297 296 294 293 292 290 289 289 288 287 287 287 286 286 285 285 284 283 282 281 278 277 276 273 272 277 284 297 314 328 338
303 304 304 303 303 304 304 304 304 304 304 304 302 300 298 296 294 292 292 291 291 290 290 289 289 288 287 286 284 281 277 274 271 266 259 253 253 254 276 324 349 357 358
311 311 311 311 311 312 312 312 312 312 312 310 308 306 303 299 296 295 296 296 295 294 294 294 294 293 292 289 284 278 270 260 247 223 203 192 173 141 100 62 40 25 15
319 318 318 319 321 322 323 324 324 323 322 321 318 315 312 308 304 302 302 303 304 304 303 304 305 305 302 294 280 259 216 174 153 146 142 134 123 109 92 73 54 37 25
Height
5864 5866 5869 5870 5871 5871 5872 5875 5876 5876 5875 5875 5875 5875 5874 5874 5873 5873 5872 5870 5870 5868 5867 5866 5864 5863 5861 5859 5857 5855 5853 5851 5848 5846 5844 5842 5840 5837 5835 5833 5831 5829 5827
5859 5862 5865 5866 5868 5870 5870 5870 5870 5871 5870 5870 5869 5868 5867 5867 5866 5866 5865 5864 5863 5862 5861 5860 5859 5857 5856 5854 5852 5851 5849 5847 5845 5842 5840 5838 5836 5833 5830 5827 5825 5822 5820
5856 5858 5860 5862 5864 5865 5866 5865 5865 5866 5865 5864 5863 5863 5861 5860 5859 5858 5857 5856 5856 5855 5854 5853 5852 5850 5849 5848 5847 5845 5843 5841 5840 5837 5835 5833 5830 5827 5824 5821 5818 5815 5812
5851 5854 5856 5857 5859 5860 5859 5859 5859 5860 5859 5859 5859 5857 5855 5854 5853 5851 5850 5849 5848 5847 5846 5845 5844 5843 5842 5841 5840 5839 5837 5835 5833 5831 5829 5826 5824 5821 5818 5814 5810 5807 5803
5846 5849 5851 5852 5853 5853 5853 5853 5853 5853 5852 5852 5851 5850 5849 5847 5845 5844 5843 5841 5841 5840 5838 5837 5836 5835 5834 5834 5833 5831 5830 5828 5826 5824 5821 5818 5815 5812 5809 5806 5802 5797 5792
5841 5843 5844 5846 5846 5847 5847 5847 5846 5845 5845 5845 5843 5841 5841 5839 5837 5836 5835 5834 5833 5832 5830 5829 5828 5827 5827 5826 5825 5823 5822 5820 5817 5815 5812 5809 5806 5803 5800 5796 5792 5787 5781
5835 5836 5837 5838 5839 5839 5840 5840 5839 5839 5838 5837 5835 5834 5833 5831 5830 5828 5827 5826 5825 5824 5823 5821 5820 5820 5819 5817 5816 5814 5812 5810 5808 5805 5802 5799 5796 5792 5789 5785 5780 5775 5770
5829 5830 5831 5832 5832 5832 5832 5832 5831 5830 5829 5828 5827 5826 5825 5823 5822 5820 5818 5818 5817 5816 5814 5813 5812 5811 5809 5808 5806 5804 5802 5799 5797 5794 5791 5787 5784 5780 5776 5772 5767 5762 5756
5822 5823 5824 5824 5824 5825 5824 5824 5823 5822 5821 5820 5819 5818 5816 5815 5814 5812 5811 5810 5808 5807 5805 5804 5803 5801 5799 5798 5796 5793 5790 5788 5785 5782 5778 5774 5770 5766 5761 5756 5752 5748 5742
5813 5814 5815 5816 5816 5816 5816 5815 5814 5813 5812 5811 5810 5809 5808 5807 5805 5804 5802 5801 5799 5798 5796 5794 5793 5791 5789 5787 5784 5781 5778 5776 5773 5769 5765 5761 5756 5751 5746 5741 5736 5731 5726
5804 5805 5805 5806 5806 5807 5807 5806 5805 5804 5803 5802 5801 5800 5798 5797 5795 5794 5793 5791 5789 5788 5786 5784 5782 5780 5778 5775 5772 5769 5766 5763 5760 5756 5752 5747 5742 5737 5732 5726 5720 5714 5708
5794 5795 5795 5796 5797 5797 5797 5797 5796 5795 5794 5793 5791 5790 5788 5787 5785 5784 5782 5780 5779 5777 5775 5773 5771 5768 5765 5762 5759 5757 5754 5750 5746 5742 5738 5733 5728 5723 5718 5712 5705 5699 5692
5785 5785 5786 5786 5786 5787 5787 5787 5787 5786 5785 5783 5782 5780 5778 5776 5775 5773 5771 5769 5767 5765 5763 5761 5758 5755 5752 5749 5746 5743 5740 5736 5732 5728 5724 5720 5715 5709 5703 5697 5691 5684 5677
5775 5775 5776 5776 5776 5776 5776 5776 5776 5776 5775 5773 5772 5770 5768 5766 5764 5762 5760 5758 5756 5753 5751 5748 5744 5741 5739 5736 5733 5729 5726 5722 5719 5715 5710 5706 5701 5695 5689 5683 5676 5670 5663
5766 5766 5766 5766 5766 5766 5766 5766 5766 5765 5764 5762 5760 5759 5756 5755 5752 5750 5748 5746 5743 5740 5738 5734 5731 5728 5725 5722 5719 5716 5712 5709 5705 5701 5696 5692 5687 5681 5675 5669 5663 5657 5651
5756 5756 5756 5757 5756 5756 5756 5756 5756 5755 5753 5750 5748 5746 5744 5743 5740 5738 5735 5733 5730 5727 5724 5721 5717 5714 5711 5708 5705 5701 5698 5694 5691 5687 5683 5678 5674 5668 5662 5656 5651 5645 5640
5748 5747 5747 5747 5747 5747 5747 5747 5746 5744 5742 5739 5737 5734 5732 5730 5728 5725 5722 5719 5717 5714 5711 5707 5704 5701 5698 5694 5691 5688 5685 5681 5678 5674 5670 5666 5661 5656 5650 5645 5639 5634 5629
5739 5739 5738 5738 5738 5738 5737 5736 5735 5732 5730 5728 5726 5723 5720 5717 5714 5712 5709 5706 5703 5700 5696 5693 5690 5687 5683 5680 5677 5674 5671 5667 5664 5661 5657 5653 5649 5645 5640 5635 5630 5625 5620
5732 5731 5730 5730 5729 5728 5727 5725 5724 5722 5719 5717 5714 5712 5709 5705 5702 5699 5696 5693 5690 5686 5683 5679 5676 5672 5669 5666 5663 5660 5657 5654 5651 5648 5645 5642 5638 5634 5630 5626 5622 5618 5614
5725 5724 5723 5722 5720 5719 5717 5715 5713 5711 5709 5706 5703 5699 5696 5693 5689 5686 5683 5679 5676 5672 5669 5665 5661 5658 5655 5652 5649 5646 5644 5641 5638 5636 5634 5631 5628 5626 5622 5619 5615 5612 5609
5718 5717 5716 5714 5712 5710 5708 5706 5703 5701 5698 5695 5691 5687 5683 5680 5676 5673 5669 5666 5662 5658 5655 5652 5648 5644 5641 5638 5635 5633 5630 5628 5626 5625 5623 5621 5619 5618 5616 5613 5611 5608 5605
5712 5711 5709 5707 5705 5702 5700 5697 5694 5691 5688 5684 5680 5676 5672 5668 5664 5660 5656 5652 5648 5645 5642 5638 5635 5631 5628 5625 5622 5620 5618 5616 5615 5614 5614 5613 5612 5612 5610 5609 5607 5605 5603
5707 5705 5703 5700 5698 5695 5692 5689 5685 5682 5678 5674 5670 5665 5661 5656 5651 5647 5643 5640 5636 5633 5629 5626 5623 5619 5616 5613 5610 5608 5607 5606 5606 5606 5606 5607 5607 5607 5607 5606 5605 5603 5601
5701 5699 5696 5694 5691 5688 5684 5681 5677 5673 5669 5665 5660 5655 5650 5645 5640 5636 5632 5629 5626 5622 5619 5616 5612 5609 5606 5603 5600 5599 5598 5598 5599 5600 5601 5603 5604 5604 5605 5605 5604 5602 5600
5696 5693 5691 5688 5685 5681 5678 5674 5670 5666 5661 5656 5650 5645 5640 5635 5631 5627 5623 5619 5616 5614 5611 5607 5604 5601 5598 5595 5594 5593 5593 5594 5595 5597 5599 5601 5603 5604 5604 5604 5603 5602 5600
5692 5689 5686 5683 5680 5676 5672 5668 5664 5659 5654 5649 5643 5638 5633 5628 5623 5620 5616 5612 5610 5607 5604 5602 5599 5596 5593 5591 5590 5590 5591 5593 5595 5597 5599 5601 5602 5604 5604 5604 5603 5602 5600